sat.trackr.live / text

‹ back to catalog

YAOGAN-31 04B

NORAD 47856 · 2021-020C

PAYLOAD ACTIVE UNKNOWN

§ Identity

Operator
Country
PRC
Launch date
2021-03-13
Launch site
JSC
Launch vehicle
Mass (kg)
RCS (m²)

External: N2YO · Heavens-Above · Gunter

§ Orbital elements

Epoch: 2026-09-20T21:21:07.172640Z

Period
107.03 min
Inclination
63.4071°
Eccentricity
0.0182920
Mean motion
13.45452817 rev/d
Perigee alt
952.4 km
Apogee alt
1,225.6 km
Semi-major
7,467.2 km
B*
1.3471e-4
RAAN
12.8366°
Arg perigee
0.8946°
Mean anomaly
359.2372°
Rev number
27,128

§ Raw data

YAOGAN-31 04B1 47856U 21020C   26263.88966635 -.00000002  00000+0  13471-3 0  99962 47856  63.4071  12.8366 0182920   0.8946 359.2372 13.45452817271289

JSON: /api/v1/satellites/47856 · /tle

For live sub-satellite position, see the globe view (requires WebGL).

§ Visibility from observer

Set your observer location to see the next 7 days of passes ≥ 10°. The values pass through the URL so the page stays shareable.

No JS? Fill the form by hand. The geolocation button needs JavaScript.